Weather reports worldwide

Advertisment
Lahr, Germany (10805): temperature & dewpoint: 10.09.2019 05:00:00 - 16.09.2019 05:00:00 (CEST)Lahr, Germany (10805): temperature 5cm & temperature -5cm: 10.09.2019 05:00:00 - 16.09.2019 05:00:00 (CEST)Lahr, Germany (10805): temperature -20cm & temperature -100cm: 10.09.2019 05:00:00 - 16.09.2019 05:00:00 (CEST)Lahr, Germany (10805): wind speed & gusts: 10.09.2019 05:00:00 - 16.09.2019 05:00:00 (CEST)Lahr, Germany (10805): wind direction: 10.09.2019 05:00:00 - 16.09.2019 05:00:00 (CEST)Lahr, Germany (10805): reduced air pressure: 10.09.2019 05:00:00 - 16.09.2019 05:00:00 (CEST)Lahr, Germany (10805): visibility: 10.09.2019 05:00:00 - 16.09.2019 05:00:00 (CEST)Lahr, Germany (10805): sunshine duration: 10.09.2019 05:00:00 - 16.09.2019 05:00:00 (CEST)Lahr, Germany (10805): precipitation: 10.09.2019 05:00:00 - 16.09.2019 05:00:00 (CEST)
Date & Time tt [°C] td [°C] tt 5cm [°C] tt -5cm [°C] tt -20cm [°C] tt -100cm [°C] ff [km/h] ff [kn] fx [km/h] fx [kn] dd ppp [hPa] vv [km] sd [min] rr [mm]
16.09.2019 05:00:00 14,2 13,7 12,8 16,9 19,9 18,8 7 4 10 5 ENE 1020,8 8 0 0,0
16.09.2019 04:00:00 14,4 13,4 12,6 17,4 20,2 18,7 4 2 7 4 WSW 1020,9 19 0 0,0
16.09.2019 03:00:00 15,9 14,8 14,0 17,9 20,5 18,7 6 3 12 6 SW 1021,4 16 0 0,0
16.09.2019 02:00:00 15,5 14,6 14,1 18,3 20,9 18,7 7 4 12 6 SSW 1021,4 13 0 0,0
16.09.2019 01:00:00 16,0 14,9 13,7 18,9 21,2 18,7 4 2 6 3 WNW 1021,5 22 0 0,0
16.09.2019 00:00:00 17,0 15,7 14,0 19,6 21,6 18,7 0 0 4 2 N 1021,4 26 0 0,0
15.09.2019 23:00:00 17,5 15,8 15,4 20,5 21,9 18,7 3 2 5 3 N 1021,5 29 0 0,0
15.09.2019 22:00:00 18,4 16,3 15,9 21,6 22,2 18,7 5 3 9 5 NE 1021,3 34 0 0,0
15.09.2019 21:00:00 19,4 16,8 16,3 22,9 22,5 18,7 8 4 9 5 NE 1021,0 43 0 0,0
15.09.2019 20:00:00 23,0 16,7 19,2 24,7 22,5 18,7 4 2 8 4 ENE 1020,5 54 19 0,0
15.09.2019 19:00:00 25,7 17,2 25,2 26,4 22,3 18,7 6 3 11 6 ENE 1020,5 66 60 0,0
15.09.2019 18:00:00 26,9 16,5 27,6 27,8 21,9 18,7 7 4 13 7 NE 1020,7 60 60 0,0
15.09.2019 17:00:00 27,2 16,0 29,3 28,6 21,4 18,7 6 3 12 7 N 1021,2 51 60 0,0
15.09.2019 16:00:00 26,9 17,3 29,7 28,7 20,7 18,7 9 5 17 9 NNE 1021,7 43 60 0,0
15.09.2019 15:00:00 27,0 15,8 30,5 28,4 19,9 18,7 4 2 10 6 - 1022,5 10 60 0,0
15.09.2019 14:00:00 25,9 16,3 30,1 27,0 19,1 18,7 5 3 12 6 WNW 1023,1 42 60 0,0
15.09.2019 13:00:00 24,6 15,6 29,5 25,0 18,4 18,7 6 3 12 6 SSW 1023,9 36 60 0,0
15.09.2019 12:00:00 23,2 15,8 28,8 22,5 17,9 18,7 5 3 13 7 SSW 1024,6 39 60 0,0
15.09.2019 11:00:00 21,2 15,4 26,5 19,9 17,6 18,7 7 4 11 6 SSW 1025,0 31 60 0,0
15.09.2019 10:00:00 18,7 14,7 23,2 17,5 17,6 18,7 8 4 11 6 SSW 1025,3 10 60 0,0
15.09.2019 09:00:00 16,6 14,3 18,0 15,5 17,7 18,7 5 3 8 4 SW 1025,4 20 60 0,0
15.09.2019 08:00:00 13,2 12,1 12,3 14,6 17,9 18,7 3 2 9 5 SW 1025,7 17 23 0,0
15.09.2019 07:00:00 12,5 12,0 10,5 14,8 18,2 18,7 0 0 5 3 N 1025,5 4,7 0 0,0
15.09.2019 06:00:00 13,5 12,7 11,4 15,2 18,5 18,7 6 3 10 5 SSW 1025,5 10 0 0,0
15.09.2019 05:00:00 13,4 12,8 12,3 15,6 18,7 18,7 7 4 9 5 SW 1025,7 9 0 0,0
15.09.2019 04:00:00 13,4 13,0 11,2 15,9 19,0 18,7 2 1 6 3 NNW 1026,1 7 0 0,0
15.09.2019 03:00:00 14,2 13,5 12,7 16,5 19,3 18,7 4 2 8 5 S 1026,2 7 0 0,0
15.09.2019 02:00:00 14,6 13,3 12,9 17,0 19,5 18,7 6 3 8 4 SSW 1026,1 14 0 0,0
15.09.2019 01:00:00 15,7 13,8 13,0 17,8 19,8 18,7 3 1 5 3 SSW 1026,4 30 0 0,0
15.09.2019 00:00:00 17,5 15,1 16,2 18,6 20,0 18,7 2 1 6 3 N 1026,7 30 0 0,0
14.09.2019 23:00:00 17,0 14,6 15,8 18,6 20,3 18,7 5 3 7 4 ENE 1027,0 33 0 0,0
14.09.2019 22:00:00 17,9 14,8 16,0 19,3 20,5 18,7 4 2 8 5 NNE 1027,0 41 0 0,0
14.09.2019 21:00:00 18,1 15,1 15,0 20,2 20,7 18,7 6 3 11 6 NNE 1027,1 46 0 0,0
14.09.2019 20:00:00 19,8 15,2 17,0 21,6 20,8 18,7 10 5 15 8 N 1026,7 48 17 0,0
14.09.2019 19:00:00 22,5 15,7 21,5 23,1 20,7 18,7 14 7 22 12 N 1026,5 65 59 0,0
14.09.2019 18:00:00 24,4 16,5 24,7 24,1 20,4 18,7 15 8 22 12 N 1026,4 48 60 0,0
14.09.2019 17:00:00 24,5 16,0 25,7 24,9 20,1 18,7 18 10 25 14 NNE 1026,9 34 60 0,0
14.09.2019 16:00:00 24,0 15,9 26,0 24,7 19,6 18,7 16 9 27 14 NNE 1027,4 26 60 0,0
14.09.2019 15:00:00 23,4 15,7 25,7 24,9 19,0 18,7 16 9 26 14 NNE 1028,1 30 60 0,0
14.09.2019 14:00:00 22,4 15,5 25,4 23,9 18,5 18,7 12 7 23 12 NNE 1028,8 38 60 0,0
14.09.2019 13:00:00 21,5 15,1 24,7 22,1 18,0 18,7 12 6 21 11 N 1029,4 32 60 0,0
14.09.2019 12:00:00 19,7 14,7 23,0 20,6 17,7 18,7 11 6 19 11 N 1030,1 10 60 0,0
14.09.2019 11:00:00 18,1 14,6 21,2 18,6 17,6 18,7 6 4 14 8 NNE 1030,6 28 29 0,0
14.09.2019 10:00:00 16,5 14,5 17,7 17,0 17,5 18,7 10 6 15 8 N 1031,1 17 0 0,0
14.09.2019 09:00:00 15,4 14,5 15,7 15,9 17,6 18,7 5 3 7 4 NNE 1031,1 10 2 0,0
14.09.2019 08:00:00 14,0 13,5 14,0 15,2 17,8 18,7 5 3 6 3 ENE 1030,9 9 0 0,0
14.09.2019 07:00:00 12,6 12,1 12,2 14,6 18,0 18,7 3 1 8 4 NE 1030,6 7 0 0,0
14.09.2019 06:00:00 12,8 12,4 10,9 14,9 18,3 18,7 5 3 6 4 NNE 1030,3 0,2 0 0,0
14.09.2019 05:00:00 12,8 12,4 11,2 15,3 18,6 18,7 6 3 8 4 NE 1030,5 6 0 0,0
14.09.2019 04:00:00 13,3 12,6 11,2 15,8 18,9 18,7 6 3 8 4 N 1030,9 12 0 0,0
14.09.2019 03:00:00 14,0 13,2 11,7 16,3 19,1 18,7 5 3 9 5 NNE 1031,1 16 0 0,0
14.09.2019 02:00:00 14,7 13,6 12,4 16,8 19,4 18,7 3 2 6 4 WNW 1031,5 27 0 0,0
14.09.2019 01:00:00 15,0 13,6 13,1 17,5 19,7 18,7 6 3 8 5 NNE 1031,1 22 0 0,0
14.09.2019 00:00:00 16,9 14,5 13,9 18,2 19,9 18,7 5 3 9 5 N 1031,2 54 0 0,0
13.09.2019 23:00:00 18,0 15,0 16,6 19,1 20,1 18,7 8 4 10 6 NNE 1031,1 53 0 0,0
13.09.2019 22:00:00 18,2 14,9 17,3 19,3 20,4 18,7 6 3 11 6 N 1031,0 57 0 0,0
13.09.2019 21:00:00 18,1 14,5 16,0 20,0 20,6 18,7 10 5 25 13 NNE 1030,9 44 0 0,0
13.09.2019 20:00:00 20,8 15,1 19,2 21,4 20,7 18,8 15 8 24 13 N 1030,4 10 27 0,0
13.09.2019 19:00:00 23,1 14,8 22,6 22,8 20,6 18,8 13 7 26 14 NNE 1030,0 10 60 0,0
13.09.2019 18:00:00 24,0 13,9 24,3 24,1 20,4 18,8 16 9 24 13 NNE 1030,0 10 60 0,0
13.09.2019 17:00:00 24,1 14,0 25,4 25,1 20,0 18,8 15 8 23 12 N 1030,2 10 60 0,0
13.09.2019 16:00:00 24,4 14,7 26,8 25,3 19,4 18,8 13 7 26 14 NNE 1030,5 29 60 0,0
13.09.2019 15:00:00 24,3 15,2 27,1 24,9 18,9 18,8 16 9 25 14 N 1030,7 10 55 0,0
13.09.2019 14:00:00 22,8 15,1 26,0 24,0 18,3 18,8 13 7 24 13 N 1031,6 10 52 0,0
13.09.2019 13:00:00 22,1 15,3 26,0 22,8 17,7 18,8 14 7 22 12 NNE 1031,9 27 58 0,0
13.09.2019 12:00:00 21,5 15,4 25,1 21,0 17,2 18,8 14 7 20 11 NNE 1032,2 32 60 0,0
13.09.2019 11:00:00 19,3 13,1 23,0 19,1 16,9 18,8 8 4 12 7 NNE 1032,7 41 60 0,0
13.09.2019 10:00:00 18,3 12,8 21,5 16,9 16,9 18,8 5 3 8 4 NNE 1032,5 39 60 0,0
13.09.2019 09:00:00 15,4 11,4 17,6 14,8 17,0 18,8 4 2 7 4 N 1032,3 10 60 0,0
13.09.2019 08:00:00 12,7 10,8 11,9 13,7 17,2 18,8 5 3 8 4 WNW 1032,4 28 27 0,0
13.09.2019 07:00:00 12,3 10,7 10,6 13,8 17,5 18,8 5 3 11 6 SW 1032,2 41 0 0,0
13.09.2019 06:00:00 12,2 11,6 10,1 14,1 17,8 18,8 3 1 4 2 NW 1031,8 18 0 0,0
13.09.2019 05:00:00 11,9 10,8 9,8 14,4 18,1 18,8 3 1 5 3 W 1031,8 32 0 0,0
13.09.2019 04:00:00 11,9 11,1 10,3 14,9 18,4 18,8 4 2 6 4 ENE 1031,9 15 0 0,0
13.09.2019 03:00:00 12,6 11,6 10,3 15,4 18,7 18,8 3 2 4 2 WNW 1031,8 30 0 0,0
13.09.2019 02:00:00 13,3 11,9 11,0 15,9 19,0 18,8 4 2 7 4 N 1031,7 45 0 0,0
13.09.2019 01:00:00 13,9 11,4 11,6 16,5 19,4 18,8 6 3 8 4 WSW 1031,4 52 0 0,0
13.09.2019 00:00:00 15,4 12,2 13,7 17,2 19,7 18,8 6 4 8 5 WSW 1031,5 53 0 0,0
12.09.2019 23:00:00 15,6 12,6 13,7 18,0 20,1 18,8 7 4 16 9 E 1031,3 62 0 0,0
12.09.2019 22:00:00 15,8 12,7 13,3 19,0 20,3 18,9 3 2 5 3 N 1031,0 70 0 0,0
12.09.2019 21:00:00 18,4 13,1 14,4 20,3 20,5 18,9 2 1 5 3 SW 1030,4 70 0 0,0
12.09.2019 20:00:00 21,1 12,7 17,0 22,2 20,5 18,9 3 2 8 5 NNE 1029,8 70 28 0,0
12.09.2019 19:00:00 23,7 12,7 23,0 23,9 20,3 18,9 8 4 10 6 N 1029,6 10 60 0,0
12.09.2019 18:00:00 25,6 9,7 25,9 25,4 19,9 18,9 4 2 9 5 N 1029,3 70 60 0,0
12.09.2019 17:00:00 25,8 9,0 27,2 26,0 19,4 18,9 5 3 14 7 WSW 1029,4 70 60 0,0
12.09.2019 16:00:00 25,6 9,3 28,6 25,9 18,7 18,9 5 3 13 7 SSE 1029,9 70 60 0,0
12.09.2019 15:00:00 25,0 8,6 28,0 25,0 18,1 18,9 5 3 15 8 - 1030,2 10 60 0,0
12.09.2019 14:00:00 24,1 9,0 27,7 23,8 17,4 18,9 10 5 16 9 SW 1030,7 33 60 0,0
12.09.2019 13:00:00 23,4 8,7 26,6 21,9 16,9 18,9 8 4 18 10 S 1031,1 39 60 0,0
12.09.2019 12:00:00 21,7 9,6 25,9 19,7 16,5 18,9 11 6 18 10 SW 1031,4 50 60 0,0
12.09.2019 11:00:00 19,9 9,1 23,9 17,8 16,3 19,0 11 6 16 9 SSW 1031,3 10 60 0,0
12.09.2019 10:00:00 17,8 9,8 20,7 16,0 16,2 19,0 13 7 16 8 SSW 1030,9 10 57 0,0
12.09.2019 09:00:00 15,3 9,7 18,3 14,2 16,3 19,0 9 5 16 8 SSW 1030,5 42 60 0,0
12.09.2019 08:00:00 13,1 9,9 12,8 13,4 16,5 19,0 9 5 14 7 S 1030,3 10 15 0,0
12.09.2019 07:00:00 13,0 10,2 11,4 13,9 16,7 19,0 10 5 14 8 SSW 1029,8 36 0 0,0
12.09.2019 06:00:00 14,0 10,6 12,9 14,3 16,8 19,0 9 5 14 7 SSW 1029,3 32 0 0,0
12.09.2019 05:00:00 13,9 10,8 12,3 14,6 17,0 19,0 6 3 9 5 SSW 1029,2 35 0 0,0
12.09.2019 04:00:00 15,0 11,1 13,1 14,7 17,1 19,0 6 3 11 6 SSW 1028,8 41 0 0,0
12.09.2019 03:00:00 15,6 10,7 13,3 15,1 17,3 19,0 8 4 11 6 SSW 1028,8 45 0 0,0
12.09.2019 02:00:00 16,1 10,7 15,1 15,4 17,4 19,1 9 5 11 6 S 1028,3 53 0 0,0
12.09.2019 01:00:00 15,3 11,6 14,5 15,5 17,6 19,1 7 4 9 5 SSW 1028,1 37 0 0,0
12.09.2019 00:00:00 14,2 11,5 13,3 15,5 17,8 19,1 8 4 9 5 SW 1027,9 31 0 0,0
11.09.2019 23:00:00 14,6 11,3 12,8 15,9 18,0 19,1 3 2 8 4 SSW 1027,5 39 0 0,0
11.09.2019 22:00:00 16,2 11,1 12,8 16,9 18,2 19,1 6 3 11 6 SSW 1027,2 48 0 0,0
11.09.2019 21:00:00 17,0 11,5 16,0 17,6 18,3 19,1 9 5 11 6 SSE 1026,6 49 0 0,0
11.09.2019 20:00:00 17,3 11,9 16,3 18,3 18,3 19,1 6 4 9 5 SSE 1026,0 50 0 0,0
11.09.2019 19:00:00 18,8 12,5 17,8 19,1 18,3 19,2 4 2 6 3 SSE 1025,4 46 0 0,0
11.09.2019 18:00:00 19,6 11,1 18,9 19,5 18,2 19,2 5 3 7 4 SW 1025,3 53 0 0,0
11.09.2019 17:00:00 20,1 8,7 19,9 20,3 18,1 19,2 5 3 8 5 WNW 1024,7 61 0 0,0
11.09.2019 16:00:00 20,4 9,0 21,0 20,8 17,7 19,2 8 4 14 8 NW 1024,5 67 0 0,0
11.09.2019 15:00:00 21,0 7,7 22,4 22,1 17,1 19,2 5 3 13 7 W 1024,3 67 5 0,0
11.09.2019 14:00:00 21,4 7,6 24,8 22,9 16,4 19,2 5 3 12 7 WSW 1024,1 40 59 0,0
11.09.2019 13:00:00 20,5 9,8 25,1 21,3 15,7 19,2 5 3 9 5 SSE 1024,3 36 60 0,0
11.09.2019 12:00:00 18,1 9,8 22,9 18,9 15,2 19,2 4 2 10 6 W 1024,7 32 60 0,0
11.09.2019 11:00:00 16,8 9,7 20,9 16,4 14,9 19,3 4 2 10 5 SSE 1024,6 40 60 0,0
11.09.2019 10:00:00 14,3 10,4 18,8 13,7 14,8 19,3 6 3 10 6 SW 1024,8 27 60 0,0
11.09.2019 09:00:00 11,5 9,1 12,5 11,6 14,9 19,3 6 4 8 5 SW 1024,1 21 60 0,0
11.09.2019 08:00:00 9,0 7,9 8,4 10,5 15,2 19,3 4 2 9 5 SSW 1024,0 16 12 0,0
11.09.2019 07:00:00 8,0 7,1 5,9 10,7 15,4 19,3 4 2 9 5 SW 1023,4 18 0 0,0
11.09.2019 06:00:00 8,7 7,9 6,3 11,0 15,7 19,3 7 4 8 4 WSW 1022,5 17 0 0,0
11.09.2019 05:00:00 9,1 8,5 5,9 11,4 16,0 19,3 2 1 5 3 E 1022,1 13 0 0,0
11.09.2019 04:00:00 8,5 7,7 6,7 11,8 16,3 19,4 2 1 5 3 NW 1021,7 12 0 0,0
11.09.2019 03:00:00 9,0 7,9 7,3 12,3 16,6 19,4 6 3 7 4 NNW 1021,5 14 0 0,0
11.09.2019 02:00:00 10,1 9,0 7,6 12,9 16,8 19,4 4 2 8 4 E 1021,3 12 0 0,0
11.09.2019 01:00:00 10,5 9,0 8,9 13,4 17,1 19,4 4 2 6 3 NNW 1021,1 19 0 0,0
11.09.2019 00:00:00 10,7 9,3 9,5 13,8 17,4 19,4 3 1 5 3 NE 1020,8 16 0 0,0
10.09.2019 23:00:00 12,4 9,9 9,2 14,6 17,7 19,4 3 2 7 4 NE 1020,2 29 0 0,0
10.09.2019 22:00:00 12,6 9,8 10,4 15,3 18,0 19,4 7 4 8 5 NNE 1019,9 27 0 0,0
10.09.2019 21:00:00 14,3 10,5 11,4 16,2 18,2 19,5 5 3 7 4 NNE 1019,2 42 0 0,0
10.09.2019 20:00:00 15,6 10,2 12,7 17,2 18,3 19,5 8 4 16 9 NNE 1018,5 53 7 0,0
10.09.2019 19:00:00 18,6 10,1 17,7 18,4 18,2 19,5 11 6 22 12 NNE 1017,7 10 57 0,0
10.09.2019 18:00:00 19,8 9,0 19,2 19,6 18,1 19,5 16 9 24 13 NNE 1017,1 10 60 0,0
10.09.2019 17:00:00 20,5 9,1 21,2 20,5 17,7 19,5 16 8 25 13 NNE 1016,8 52 58 0,0
10.09.2019 16:00:00 20,9 9,0 22,5 21,1 17,3 19,5 12 7 26 14 NNE 1016,6 43 60 0,0
10.09.2019 15:00:00 20,5 9,4 23,0 20,8 16,8 19,6 13 7 21 12 NNE 1016,8 10 60 0,0
10.09.2019 14:00:00 19,5 9,7 21,7 20,1 16,2 19,6 13 7 20 11 NE 1016,7 46 60 0,0
10.09.2019 13:00:00 18,5 9,7 21,5 19,2 15,7 19,6 12 6 18 10 NE 1016,8 40 60 0,0
10.09.2019 12:00:00 16,7 9,5 19,9 17,6 15,3 19,6 9 5 17 9 NNE 1017,1 28 60 0,0
10.09.2019 11:00:00 14,2 9,2 17,2 15,4 15,0 19,6 9 5 16 8 N 1017,2 10 60 0,0
10.09.2019 10:00:00 12,2 9,1 15,4 13,3 15,0 19,6 8 4 13 7 NNE 1016,8 23 56 0,0
10.09.2019 09:00:00 10,1 8,2 10,7 11,8 15,2 19,6 4 2 8 4 - 1016,7 10 33 0,0
10.09.2019 08:00:00 7,4 7,0 7,4 10,8 15,4 19,7 5 3 8 5 NE 1016,4 0,7 0 0,0
10.09.2019 07:00:00 7,4 7,0 6,2 10,8 15,7 19,7 5 3 6 3 ENE 1016,2 6 0 0,0
10.09.2019 06:00:00 7,3 6,8 5,6 11,1 15,9 19,7 5 3 7 4 NNE 1015,9 0,3 0 0,0
10.09.2019 05:00:00 8,0 7,1 6,0 11,6 16,2 19,7 4 2 8 5 WNW 1015,9 12 0 0,0

tt = temperature
td = dewpoint
tt 5cm = temperature 5cm
tt -5cm = temperature -5cm
tt -20cm = temperature -20cm
tt -100cm = temperature -100cm
ff = wind speed
fx = gusts
dd = wind direction
ppp = reduced air pressure
vv = visibility
sd = sunshine duration
rr = precipitation

Next stations